Tampa Macdill AFB, FL

11:48 AM EDT on June 26, 2017 (GMT -0400)
MacDill Air Force Base

Weather History for KMCF - December, 2013

Change the Weather History Date:

Wednesday, December 11, 2013

  Actual Average Record
Temperature  
Mean Temperature 73 °F -  
Max Temperature 84 °F 71 °F 84 °F (2013)
Min Temperature 62 °F 54 °F 44 °F (2010)
Cooling Degree Days 8    
Growing Degree Days 23 (Base 50)    
Moisture  
Dew Point 66 °F    
Average Humidity 84    
Maximum Humidity 100    
Minimum Humidity 59    
Precipitation  
Precipitation 0.00 in - - ()
Sea Level Pressure  
Sea Level Pressure 30.21 in    
Wind  
Wind Speed 9 mph (NNE)    
Max Wind Speed 14 mph    
Max Gust Speed -    
Visibility 10 miles    
Events      
Averages and records for this station are not official NWS values.
T = Trace of Precipitation, MM = Missing Value Source: NWS Daily Summary

Daily Weather History Graph

Daily Weather History Graph

Search for Another Location

Airport or City:

Trip Planner

Search our weather history database for the weather conditions in past years. The results will help you decide how hot, cold, wet, or windy it might be!

Date:

Astronomy

Dec. 11, 2013 Rise Set
Actual Time 7:11 AM EST 5:35 PM EST
Civil Twilight 6:45 AM EST 6:01 PM EST
Nautical Twilight 6:16 AM EST 6:30 PM EST
Astronomical Twilight 5:47 AM EST 6:59 PM EST
Moon 1:48 PM EST (12/11) 1:54 AM EST (12/11)
Length of Visible Light 11h 16m
Length of Day
10h 24m
Waxing Gibbous, 71% of the Moon is Illuminated
Dec 11
Waxing Gibbous
Dec 17
Full
Dec 25
Last Quarter
Jan 1
New
Jan 7
First Quarter

Hourly Weather History & Observations

Time (EST) Temp. Heat Index Dew Point Humidity Pressure Visibility Wind Dir Wind Speed Gust Speed Precip Events Conditions
12:58 AM 70.9 °F - 70.7 °F 99% 30.18 in 10.0 mi NNE 10.4 mph - N/A   Mostly Cloudy
1:08 AM 69.8 °F - 69.8 °F 100% 30.17 in 10.0 mi NE 9.2 mph - N/A   Mostly Cloudy
2:03 AM 69.8 °F - 68.0 °F 94% 30.17 in 10.0 mi NE 10.4 mph - N/A   Mostly Cloudy
2:58 AM 68.9 °F - 68.4 °F 98% 30.18 in 10.0 mi NE 9.2 mph - N/A   Overcast
4:13 AM 68.0 °F - 66.2 °F 94% 30.17 in 10.0 mi NE 12.7 mph - N/A   Overcast
6:58 AM 63.1 °F - 61.2 °F 93% 30.22 in 10.0 mi East 12.7 mph - N/A   Clear
7:58 AM 62.6 °F - 60.3 °F 92% 30.24 in 10.0 mi East 12.7 mph - N/A   Clear
8:58 AM 65.3 °F - 59.7 °F 82% 30.26 in 10.0 mi ENE 13.8 mph - N/A   Clear
9:58 AM 68.7 °F - 61.3 °F 77% 30.27 in 10.0 mi East 12.7 mph - N/A   Clear
10:58 AM 73.8 °F - 64.2 °F 72% 30.26 in 10.0 mi East 10.4 mph - N/A   Clear
11:58 AM 77.0 °F - 66.2 °F 69% 30.24 in 10.0 mi East 10.4 mph - N/A   Clear
12:58 PM 81.1 °F 83.7 °F 67.5 °F 63% 30.21 in 10.0 mi East 8.1 mph - N/A   Clear
1:58 PM 83.7 °F 86.7 °F 67.8 °F 59% 30.19 in 10.0 mi Variable 3.5 mph - N/A   Clear
2:58 PM 84.2 °F 88.4 °F 69.8 °F 62% 30.18 in 10.0 mi NNW 5.8 mph - N/A   Clear
3:58 PM 81.9 °F 84.8 °F 68.4 °F 63% 30.17 in 10.0 mi NNW 4.6 mph - N/A   Clear
4:58 PM 78.6 °F - 68.2 °F 70% 30.18 in 10.0 mi NNW 4.6 mph - N/A   Clear
5:58 PM 73.4 °F - 68.9 °F 86% 30.20 in 10.0 mi NNW 6.9 mph - N/A   Partly Cloudy
6:58 PM 70.7 °F - 68.7 °F 93% 30.22 in 10.0 mi NNW 8.1 mph - N/A   Clear
7:58 PM 68.9 °F - 66.7 °F 93% 30.23 in 10.0 mi North 9.2 mph - N/A   Partly Cloudy
8:58 PM 68.4 °F - 66.6 °F 94% 30.23 in 10.0 mi North 8.1 mph - N/A   Clear
9:58 PM 67.8 °F - 66.4 °F 95% 30.24 in 10.0 mi North 5.8 mph - N/A   Partly Cloudy
10:58 PM 67.1 °F - 65.7 °F 95% 30.23 in 10.0 mi NNE 3.5 mph - N/A   Clear
11:58 PM 65.7 °F - 64.6 °F 96% 30.24 in 10.0 mi NNE 3.5 mph - N/A   Clear